Skip Page Navigation
NASA JPL Caltech
NASA Logo - Jet Propulsion Laboratory + View the NASA Portal
+ Near-Earth Object (NEO) Program
Search JPL
JPL Home Earth Solar System Stars & Galaxies Technology
JPL Solar System Dynamics
BODIES ORBITS EPHEMERIDES TOOLS PHYSICAL DATA DISCOVERY FAQ SITE MAP
JPL Small-Body Database Browser
Search: [ help ]  
(2005 EJ225)
Classification: Apollo [NEO, PHA]          SPK-ID: 3274694
Ephemeris | Orbit Diagram | Orbital Elements | Physical Parameters | Close-Approach Data ]

[ hide orbit diagram ]
Orbit Diagram
Note: Make sure you have Java enabled on your browser to see the applet. This applet is provided as a 3D orbit visualization tool. The applet was implemented using 2-body methods, and hence should not be used for determining accurate long-term trajectories (over several years or decades) or planetary encounter circumstances. For accurate long-term ephemerides, please instead use our Horizons system.
Orbit Viewer

Additional Notes: the orbits shown in the applet are color coded. The planets are white lines, and the asteroid/comet is a blue line. The bright white line indicates the portion of the orbit that is above the ecliptic plane, and the darker portion is below the ecliptic plane. Likewise for the asteroid/comet orbit, the light blue indicates the portion above the ecliptic plane, and the dark blue the portion below the ecliptic plane.

Orbit Viewer applet originally written and kindly provided by Osamu Ajiki (AstroArts), and further modified by Ron Baalke (JPL).


Orbital Elements at Epoch 2456400.5 (2013-Apr-18.0) TDB
Reference: JPL 30 (heliocentric ecliptic J2000)
 Element Value Uncertainty (1-sigma)   Units 
e .5729051531012593 1.0523e-07  
a 1.707146826969794 2.4681e-07 AU
q .729113612698335 1.1721e-07 AU
i 8.850829289271173 1.6595e-05 deg
node 342.2357819966728 5.1288e-05 deg
peri 290.4255066640219 5.1881e-05 deg
M 174.2208067527784 0.00027028 deg
tp 2456006.222259241452
(2012-Mar-19.72225924)
0.00052636 JED
period 814.7131753011112
2.23
0.00017668
4.837e-07
d
yr
n .4418733008300093 9.5824e-08 deg/d
Q 2.685180041241253 3.882e-07 AU
  Orbit Determination Parameters
   # obs. used (total)      128  
   data-arc span      2816 days (7.71 yr)  
   first obs. used      2005-02-04  
   last obs. used      2012-10-21  
   planetary ephem.      DE405  
   SB-pert. ephem.      SB405-CPV-2  
   condition code      1  
   fit RMS      .65373  
   data source      ORB  
   producer      Otto Matic  
   solution date      2012-Oct-22 01:50:10  

Additional Information
 Earth MOID = .01631 AU 
 T_jup = 3.976 
[ show covariance matrix ]

Ephemeris | Orbit Diagram | Orbital Elements | Physical Parameters | Close-Approach Data ]

Physical Parameter Table
Parameter Symbol Value Units Sigma Reference Notes
absolute magnitude H 18.829 mag .51416 30 autocmod 2.5b

[ show close-approach data ]
Ephemeris | Orbit Diagram | Orbital Elements | Physical Parameters | Close-Approach Data ]
ABOUT SSD CREDITS/AWARDS PRIVACY/COPYRIGHT GLOSSARY LINKS
FirstGov 2013-May-20 05:41 UT
(server date/time)  
NASA Home Page
Site Manager:   Donald K. Yeomans
Webmaster  Alan B. Chamberlin